Flag for Sweden Weather past 2 weeks in Kiruna, Sweden

Now
16 °F

Partly sunny.


Feels Like: 16 °F
Forecast: -6 / 4 °F
Wind: No wind

Location: Kiruna Airport

Current Time: Dec 22, 2014 at 6:58:39 AM

Latest Report: Dec 22, 2014 at 6:20 AM


Visibility: N/A

Pressure: 29.30 "Hg

Humidity: 93%

Dew point: 14 °F

Location of KirunaLocation

Historic Weather in Kiruna — Graph

°F

Kiruna temperature yesterday

Maximum temperature yesterday: 19 °F (at 9:50 AM)
Minimum temperature yesterday: 9 °F (at 12:20 AM)
Average temperature yesterday: 17 °F

Past Weeks' High & Low Weather Summary

 TemperatureHumidityPressure
High32 °F (Dec 10, 8:50 PM)100% (Dec 8, 4:50 AM)29.53 "Hg (Dec 8, 4:50 AM)
Low-9 °F (Dec 14, 9:20 PM)77% (Dec 14, 8:50 PM)28.85 "Hg (Dec 20, 3:50 AM)
Average18 °F93%29.12 "Hg
* Reported Dec 7 5:20 AM — Dec 22 5:50 AM, Kiruna, Weather by CustomWeather, © 2014

Note: Actual official high and low records may vary slightly from our data, if they occured in-between our weather recording intervals... More about our weather records

Advertising

Kiruna weather history for previous 24 hours

 ConditionsComfort  
Time TempWeatherWind HumidityBarometerVisibility
5:50 AM
Dec 22
16 °FPassing clouds.No wind93%29.30 "HgN/A
5:20 AM14 °FOvercast.No wind92%29.33 "HgN/A
4:50 AM14 °FOvercast.No wind92%29.33 "HgN/A
4:20 AM14 °FOvercast.No wind92%29.33 "HgN/A
3:50 AM14 °FOvercast.No wind92%29.33 "HgN/A
3:20 AM12 °FOvercast.No wind92%29.36 "HgN/A
2:50 AM10 °FOvercast.No wind92%29.36 "HgN/A
2:20 AM10 °FOvercast.No wind92%29.36 "Hg1 mi
1:50 AM12 °FPassing clouds.No wind92%29.36 "Hg2 mi
1:20 AM16 °FOvercast.No wind93%29.36 "HgN/A
12:50 AM19 °FOvercast.No wind93%29.36 "HgN/A
12:20 AM19 °FOvercast.2 mph93%29.36 "HgN/A
11:50 PM
Dec 21
19 °FOvercast.No wind93%29.36 "HgN/A
11:20 PM19 °FLight snow. Overcast.No wind93%29.39 "HgN/A
10:20 PM19 °FSnow flurries. Overcast.No wind93%29.39 "HgN/A
9:50 PM19 °FLight snow. Mostly cloudy.No wind100%29.39 "HgN/A
9:20 PM19 °FLight snow. Overcast.1 mph100%29.39 "HgN/A
8:50 PM19 °FMostly cloudy.2 mph100%29.39 "HgN/A
8:20 PM19 °FLight snow. Overcast.2 mph100%29.39 "HgN/A
7:50 PM19 °FLight snow. Overcast.5 mph100%29.39 "HgN/A
7:20 PM19 °FOvercast.1 mph100%29.39 "HgN/A
6:50 PM19 °FOvercast.3 mph93%29.39 "HgN/A
6:20 PM19 °FLight snow. More clouds than sun.No wind93%29.39 "HgN/A
5:50 PM19 °FLight snow. Overcast.1 mph93%29.39 "HgN/A
5:20 PM19 °FOvercast.3 mph93%29.39 "HgN/A
4:50 PM19 °FOvercast.5 mph93%29.39 "HgN/A
4:20 PM19 °FOvercast.3 mph93%29.39 "HgN/A
3:50 PM18 °FOvercast.3 mph93%29.36 "HgN/A
3:20 PM18 °FBroken clouds.3 mph93%29.36 "HgN/A
2:50 PM19 °FPartly sunny.2 mph100%29.36 "HgN/A
2:20 PM19 °FBroken clouds.3 mph100%29.36 "HgN/A
1:50 PM19 °FLight snow. Overcast.3 mph100%29.36 "HgN/A
1:20 PM19 °FLight snow. Overcast.2 mph100%29.33 "HgN/A
12:50 PM19 °FLight snow. Overcast.2 mph100%29.33 "HgN/A
12:20 PM19 °FLight snow. Ice fog.3 mph100%29.33 "Hg1 mi
11:50 AM19 °FLight snow. Ice fog.3 mph100%29.33 "Hg1 mi
11:20 AM19 °FLight snow. Ice fog.5 mph100%29.30 "Hg1 mi
10:50 AM19 °FSnow. Ice fog.3 mph100%29.30 "Hg1 mi
10:20 AM19 °FLight snow. Mostly cloudy.3 mph100%29.30 "HgN/A
9:50 AM19 °FMostly cloudy.3 mph100%29.30 "HgN/A
9:20 AM18 °FOvercast.No wind93%29.27 "HgN/A
8:50 AM16 °FOvercast.No wind93%29.27 "HgN/A
8:20 AM18 °FOvercast.No wind93%29.27 "HgN/A
7:50 AM16 °FOvercast.No wind100%29.27 "HgN/A
7:20 AM16 °FCloudy.No wind93%29.24 "HgN/A
6:50 AM14 °FMore clouds than sun.No wind92%29.24 "HgN/A
6:20 AM14 °FPartly sunny.No wind100%29.21 "HgN/A
Weather by CustomWeather, © 2014

See weather overviewHow to use our weather pages